STARLINK-32457, 61717

Orbit data source: Space-Track

STARLINK-32457, 61717 is a payload satellite owned by SpaceX/Seattle (US) in LEO that was launched on Wed, 30 Oct 2024 UTC via an FALCON 9 launch vehicle from the Air Force Eastern Test Range (AFETR). Payload-class satellites include a variety of spacecraft equipped with specific instruments for various scientific and technological missions. These include communications satellites like Starlink; space stations such as the ISS; scientific satellites like the Hubble; Earth observation satellites from companies like Planet Labs, Umbra, and HawkEye 360; GPS; miniature CubeSats for education and research; and military/defense satellites.

Loading next visibility...
Identifier
61717, 2024-196L
Orbit
LEO
Country
Flag of USUS
Related business
Manufacturer
SpaceX/Seattle
Mission
Operational Commercial Communications
Bus & Motor
STARLINK V2M, Unknown motor
Mass
730 kg wet, ~700 kg dry
Launch date (UTC)
2024-10-30 (1 year ago)
Launch vehicle
FALCON 9
Launch site
Air Force Eastern Test Range (AFETR)
Object type
Payload
Rocket body
Debris
Shape & HBR
Box + 2 Pan, 17.7 m
Radar Cross Section
33.884 m², Large (>1 m²)

Expand to show TLE details & history
Last TLE update: 9 hours ago

TLE from 9 hours ago
0 STARLINK-32457
1 61717U 24196L   25340.91007201  .00001581  00000-0  65493-4 0  9994
2 61717  53.1600 172.1465 0001088 107.6595 252.4525 15.30191709 62958
Epoch: 2025-12-06T21:50Z
TLE epoch observation values (Epoch: 2025-12-06T21:50:30.221Z)
Latitude
-0°
Longitude
128.58954°
Altitude
476.364 km
Speed
7.629 km/s
True Right ascension
11h 28m 35s
True Declination
0° 00' 00"
Sunlit
Object was in daylight at epoch
Visualization orbit readout
Latitude
Unknown
Longitude
Unknown
Altitude
Unknown
Speed
Unknown
Apparent Right ascension
Unknown
Apparent Declination
Unknown
Sunlit
N/A
Visualization observer readout
Local Sidereal Time
04:40:20
Azimuth
Unknown
Elevation
Unknown
Doppler factor
Unknown
Orbital elements
Apogee altitude
476.242 km
Perigee altitude
474.751 km
Semi-major axis
6,853.633 km
Eccentricity
0.00011
Inclination
53.16°
RAAN
172.1465°
Arg. of periapsis
107.6595°
True anomaly
252.44061°
Mean anomaly
252.4525°
Eccentric anomaly
252.44656°
Mean motion
3.82527 °/min
Orbital period
94.11 mins
BSTAR
0.000065493
Loading maneuver chart data...
Computing Atmospheric mass density...
Loading historical data...
Loading historical data...
Loading historical data...
Loading historical data...
Loading historical data...
Loading historical data...
Loading historical data...

Documentation

Showing up to 5 results
|